Date String (YYYY-MM-DD hh:mm:ss) UTC,Instrument flags,Ambient pressure (hPa),Sample flow (lpm),Bypass flow (lpm),Sample temperature (°C),Ambient temperature (°C),ASC tube jacket temperature (°C),LED temperature (°C),Box temperature (°C),Sample RH (%),Span deviation,Mass concentration (μg/m³),Mass concentration (μg/m³),Mass concentration (μg/m³)
DateTimeUTC,F1_M11,P_M11,Q1_M11,Q2_M11,T1_M11,T2_M11,T3_M11,T4_M11,T5_M11,U1_M11,ZSPAN_M11,X0_M11,X2_M11,X1_M11
2022-05-20 12:00:00,,0817.2,4.99,0.00,24.6,23.3,00.0,33.7,26.4,21.3,0000.0,0003.68,0003.00,0002.53
2022-05-20 12:01:00,,0817.2,5.01,0.00,24.6,23.3,00.0,33.7,26.4,20.9,0000.0,0003.71,0002.97,0002.52
2022-05-20 12:02:00,,0817.1,5.00,0.00,24.6,23.3,00.0,33.7,26.3,20.6,0000.0,0003.64,0002.94,0002.52
2022-05-20 12:03:00,,0817.2,5.01,0.00,24.5,23.3,00.0,33.7,26.3,20.6,0000.0,0003.60,0002.91,0002.51
2022-05-20 12:04:00,,0817.2,4.99,0.00,24.5,23.2,00.0,33.7,26.3,20.6,0000.0,0003.64,0002.92,0002.52
2022-05-20 12:05:00,,0817.3,5.00,0.00,24.5,23.2,00.0,33.6,26.3,20.5,0000.0,0003.50,0002.91,0002.52
2022-05-20 12:06:00,,0817.4,5.00,0.00,24.5,23.2,00.0,33.6,26.3,20.6,0000.0,0003.52,0002.93,0002.53
2022-05-20 12:07:00,,0817.5,5.00,0.00,24.5,23.2,00.0,33.6,26.3,20.5,0000.0,0003.52,0002.93,0002.52
2022-05-20 12:08:00,,0817.6,5.01,0.00,24.5,23.2,00.0,33.6,26.2,20.5,0000.0,0003.47,0002.91,0002.52
2022-05-20 12:09:00,,0817.6,4.99,0.00,24.4,23.1,00.0,33.6,26.2,20.5,0000.0,0003.51,0002.93,0002.52
2022-05-20 12:10:00,,0817.5,5.01,0.00,24.4,23.1,00.0,33.6,26.2,20.6,0000.0,0003.62,0002.98,0002.53
2022-05-20 12:11:00,,0817.5,4.99,0.00,24.4,23.1,00.0,33.5,26.2,20.6,0000.0,0003.65,0003.01,0002.54
2022-05-20 12:12:00,,0817.5,5.01,0.00,24.4,23.2,00.0,33.5,26.2,20.5,0000.0,0003.62,0003.02,0002.56
2022-05-20 12:13:00,,0817.4,5.00,0.00,24.4,23.2,00.0,33.5,26.2,20.6,0000.0,0003.65,0003.04,0002.56
2022-05-20 12:14:00,,0817.4,5.00,0.00,24.4,23.2,00.0,33.5,26.2,20.6,0000.0,0003.68,0003.07,0002.58
2022-05-20 12:15:00,,0817.4,4.99,0.00,24.4,23.2,00.0,33.5,26.2,20.6,0000.0,0003.72,0003.07,0002.57
2022-05-20 12:16:00,,0817.3,5.00,0.00,24.4,23.2,00.0,33.5,26.2,20.6,0000.0,0003.78,0003.08,0002.55
2022-05-20 12:17:00,,0817.3,5.01,0.00,24.4,23.1,00.0,33.5,26.2,20.6,0000.0,0003.70,0002.99,0002.50
2022-05-20 12:18:00,,0817.4,4.99,0.00,24.4,23.1,00.0,33.5,26.2,20.6,0000.0,0003.70,0002.97,0002.47
2022-05-20 12:19:00,,0817.4,5.01,0.00,24.4,23.1,00.0,33.5,26.1,20.6,0000.0,0003.79,0002.99,0002.46
2022-05-20 12:20:00,,0817.4,4.99,0.00,24.3,23.1,00.0,33.4,26.1,20.7,0000.0,0004.01,0003.03,0002.46
2022-05-20 12:21:00,,0817.4,5.01,0.00,24.3,23.1,00.0,33.4,26.1,20.8,0000.0,0003.95,0003.00,0002.46
2022-05-20 12:22:00,,0817.4,5.00,0.00,24.3,23.1,00.0,33.4,26.1,20.8,0000.0,0003.93,0002.99,0002.46
2022-05-20 12:23:00,,0817.4,5.00,0.00,24.3,23.1,00.0,33.4,26.1,20.8,0000.0,0003.95,0002.99,0002.45
2022-05-20 12:24:00,,0817.5,5.00,0.00,24.3,23.1,00.0,33.4,26.1,20.9,0000.0,0003.98,0003.01,0002.46
2022-05-20 12:25:00,,0817.5,4.99,0.00,24.3,23.1,00.0,33.4,26.1,21.0,0000.0,0004.18,0003.03,0002.46
2022-05-20 12:26:00,,0817.6,5.01,0.00,24.3,23.1,00.0,33.4,26.1,21.0,0000.0,0004.06,0003.03,0002.48
2022-05-20 12:27:00,,0817.5,4.99,0.00,24.3,23.1,00.0,33.4,26.1,21.0,0000.0,0004.00,0002.99,0002.47
2022-05-20 12:28:00,,0817.5,5.01,0.00,24.3,23.1,00.0,33.4,26.1,20.9,0000.0,0003.99,0002.98,0002.47
2022-05-20 12:29:00,,0817.5,4.99,0.00,24.3,23.1,00.0,33.3,26.1,20.9,0000.0,0003.85,0002.94,0002.46
2022-05-20 12:30:00,,0817.5,5.01,0.00,24.3,23.1,00.0,33.3,26.1,20.9,0000.0,0003.77,0002.91,0002.44
2022-05-20 12:31:00,,0817.5,4.99,0.00,24.2,23.1,00.0,33.3,26.0,20.9,0000.0,0003.51,0002.84,0002.41
2022-05-20 12:32:00,,0817.5,5.02,0.00,24.2,23.1,00.0,33.3,26.0,20.9,0000.0,0003.48,0002.81,0002.38
2022-05-20 12:33:00,,0817.5,4.98,0.00,24.2,23.0,00.0,33.3,26.0,20.8,0000.0,0003.38,0002.76,0002.36
2022-05-20 12:34:00,,0817.6,5.01,0.00,24.2,23.0,00.0,33.3,26.0,20.9,0000.0,0003.32,0002.74,0002.36
2022-05-20 12:35:00,,0817.7,5.00,0.00,24.2,23.0,00.0,33.3,26.0,20.9,0000.0,0003.22,0002.71,0002.34
2022-05-20 12:36:00,,0817.7,4.99,0.00,24.2,23.0,00.0,33.3,26.0,20.9,0000.0,0002.99,0002.66,0002.32
2022-05-20 12:37:00,,0817.8,5.00,0.00,24.2,23.0,00.0,33.3,25.9,21.0,0000.0,0002.90,0002.62,0002.31
2022-05-20 12:38:00,,0817.7,5.00,0.00,24.2,22.9,00.0,33.3,25.9,21.0,0000.0,0002.90,0002.65,0002.32
2022-05-20 12:39:00,,0817.8,5.00,0.00,24.1,22.9,00.0,33.2,25.9,21.0,0000.0,0002.83,0002.66,0002.34
2022-05-20 12:40:00,,0817.8,4.99,0.00,24.1,22.9,00.0,33.2,25.9,21.1,0000.0,0002.86,0002.69,0002.38
2022-05-20 12:41:00,,0817.7,5.00,0.00,24.1,22.8,00.0,33.2,25.8,21.2,0000.0,0002.92,0002.73,0002.42
2022-05-20 12:42:00,,0817.7,5.00,0.00,24.0,22.8,00.0,33.2,25.8,21.3,0000.0,0003.02,0002.77,0002.47
2022-05-20 12:43:00,,0817.6,4.99,0.00,24.0,22.8,00.0,33.2,25.8,21.2,0000.0,0003.07,0002.80,0002.49
2022-05-20 12:44:00,,0817.7,4.99,0.00,24.0,22.8,00.0,33.2,25.9,21.3,0000.0,0003.06,0002.81,0002.50
2022-05-20 12:45:00,,0817.8,5.01,0.00,24.1,22.8,00.0,33.1,25.9,21.2,0000.0,0003.03,0002.80,0002.52
2022-05-20 12:46:00,,0817.9,4.99,0.00,24.1,22.9,00.0,33.1,25.9,21.2,0000.0,0003.02,0002.80,0002.51
2022-05-20 12:47:00,,0817.9,4.99,0.00,24.1,22.9,00.0,33.1,25.9,21.3,0000.0,0003.02,0002.80,0002.51
2022-05-20 12:48:00,,0817.8,4.99,0.00,24.0,22.8,00.0,33.1,25.9,21.3,0000.0,0003.08,0002.82,0002.50
2022-05-20 12:49:00,,0817.8,5.01,0.00,24.0,22.8,00.0,33.1,25.8,21.3,0000.0,0002.96,0002.75,0002.47
2022-05-20 12:50:00,,0817.7,4.99,0.00,24.0,22.8,00.0,33.1,25.7,21.4,0000.0,0002.94,0002.72,0002.44
2022-05-20 12:51:00,,0817.6,5.01,0.00,24.0,22.8,00.0,33.1,25.7,21.4,0000.0,0002.98,0002.70,0002.39
2022-05-20 12:52:00,,0817.6,5.00,0.00,24.0,22.7,00.0,33.1,25.7,21.4,0000.0,0002.93,0002.65,0002.35
2022-05-20 12:53:00,,0817.6,5.02,0.00,23.9,22.7,00.0,33.1,25.7,21.5,0000.0,0002.87,0002.62,0002.30
2022-05-20 12:54:00,,0817.7,4.99,0.00,23.9,22.7,00.0,33.1,25.6,21.6,0000.0,0002.77,0002.61,0002.29
2022-05-20 12:55:00,,0817.7,5.01,0.00,23.9,22.7,00.0,33.0,25.6,21.6,0000.0,0002.71,0002.57,0002.26
2022-05-20 12:56:00,,0817.8,5.00,0.00,23.9,22.7,00.0,33.0,25.6,21.4,0000.0,0002.68,0002.49,0002.17
2022-05-20 12:57:00,,0817.7,5.01,0.00,23.9,22.7,00.0,33.0,25.6,21.2,0000.0,0002.61,0002.38,0002.06
2022-05-20 12:58:00,,0817.8,4.99,0.00,23.9,22.7,00.0,33.0,25.7,21.1,0000.0,0002.49,0002.27,0001.96
2022-05-20 12:59:00,,0817.8,5.01,0.00,23.9,22.7,00.0,33.0,25.6,21.0,0000.0,0002.33,0002.13,0001.84
